Location: ČR
(50.0000°N, 15.0000°E)
Time: 15:59:25
(UTC+01:00)

Courier 1B - Pass Details

Date: 16 February 2026
Orbit: 962 x 1208 km, 28.3° (Epoch: 16 March)

Event Time Altitude Azimuth Distance (km) Brightness Sun altitude
Rises 23:36:10 0° 240° (WSW) 4,071 - -51.3°
Reaches altitude 10° 23:41:32 10° 210° (SSW) 3,133 - -51.5°
Maximum altitude 23:43:50 11° 192° (SSW) 3,026 - -51.6°
Drops below altitude 10° 23:46:07 10° 175° (S) 3,138 - -51.6°
Sets 23:51:31 0° 145° (SE) 4,089 - -51.8°
